TimeEST,TemperatureF,Dew PointF,Humidity,Sea Level PressureIn,VisibilityMPH,Wind Direction,Wind SpeedMPH,Gust SpeedMPH,PrecipitationIn,Events,Conditions,WindDirDegrees,DateUTC
12:51 AM,39.0,33.1,79,30.27,10.0,SE,4.6,-,0.00,Rain,Light Rain,130,2013-02-23 05:51:00
1:44 AM,37.4,33.8,87,30.25,9.0,SE,6.9,-,0.00,,Light Drizzle,140,2013-02-23 06:44:00
1:51 AM,37.9,35.1,89,30.25,9.0,SE,4.6,-,0.00,,Light Drizzle,130,2013-02-23 06:51:00
1:59 AM,37.4,35.6,93,30.25,9.0,SE,4.6,-,0.00,,Light Drizzle,130,2013-02-23 06:59:00
2:38 AM,37.4,35.6,93,30.22,7.0,East,6.9,-,0.00,,Light Drizzle,100,2013-02-23 07:38:00
2:51 AM,37.9,36.0,93,30.22,6.0,ESE,6.9,-,0.00,,Light Drizzle,110,2013-02-23 07:51:00
3:51 AM,37.9,36.0,93,30.19,8.0,ESE,4.6,-,0.00,,Light Drizzle,110,2013-02-23 08:51:00
4:51 AM,37.9,37.0,97,30.18,4.0,ENE,4.6,-,0.00,,Light Drizzle,70,2013-02-23 09:51:00
5:51 AM,37.9,37.0,97,30.16,4.0,East,5.8,-,0.00,,Light Drizzle,90,2013-02-23 10:51:00
6:51 AM,37.4,37.4,100,30.16,4.0,ENE,5.8,-,N/A,,Light Drizzle,70,2013-02-23 11:51:00
7:51 AM,39.0,37.9,96,30.14,4.0,ENE,5.8,-,0.00,,Light Drizzle,70,2013-02-23 12:51:00
8:34 AM,39.2,37.4,93,30.13,2.0,ENE,6.9,-,0.00,,Light Drizzle,70,2013-02-23 13:34:00
8:47 AM,39.2,39.2,100,30.13,1.5,ENE,6.9,-,0.00,Rain,Light Rain,70,2013-02-23 13:47:00
8:51 AM,39.9,39.0,97,30.13,1.5,East,6.9,-,0.00,Rain,Light Rain,80,2013-02-23 13:51:00
9:44 AM,41.0,39.2,93,30.10,1.5,ENE,8.1,-,0.01,,Light Drizzle,70,2013-02-23 14:44:00
9:51 AM,41.0,39.9,96,30.09,1.5,ENE,8.1,-,0.01,,Light Drizzle,70,2013-02-23 14:51:00
10:12 AM,41.0,39.2,93,30.09,0.2,ENE,8.1,-,0.01,Rain,Light Rain,60,2013-02-23 15:12:00
10:44 AM,41.0,41.0,100,30.08,0.5,NE,4.6,-,0.03,Rain,Light Rain,40,2013-02-23 15:44:00
10:51 AM,41.0,39.9,96,30.08,0.5,NE,5.8,-,0.03,Rain,Light Rain,50,2013-02-23 15:51:00
11:51 AM,39.9,39.0,97,30.05,0.5,NNE,8.1,-,0.03,Rain,Light Rain,20,2013-02-23 16:51:00
12:42 PM,41.0,41.0,100,30.02,0.2,NNE,6.9,-,0.04,Fog-Rain,Light Rain,20,2013-02-23 17:42:00
12:51 PM,41.0,41.0,100,30.01,0.2,NNE,6.9,-,0.04,Fog-Rain,Light Rain,20,2013-02-23 17:51:00
1:51 PM,42.1,41.0,96,29.99,0.2,NNE,8.1,-,0.02,Fog-Rain,Light Rain,20,2013-02-23 18:51:00
2:51 PM,42.1,42.1,100,29.96,0.2,NE,6.9,-,0.08,Rain,Light Rain,40,2013-02-23 19:51:00
3:51 PM,42.1,42.1,100,29.96,0.2,NNE,6.9,-,0.06,Rain,Light Rain,30,2013-02-23 20:51:00
4:48 PM,42.8,42.8,100,29.94,1.0,NNE,10.4,-,0.05,Rain,Light Rain,30,2013-02-23 21:48:00
4:51 PM,43.0,42.1,97,29.94,1.0,NE,9.2,-,0.05,Rain,Light Rain,40,2013-02-23 21:51:00
5:51 PM,39.9,39.0,97,29.92,2.0,NE,10.4,-,0.02,,Light Drizzle,40,2013-02-23 22:51:00
6:51 PM,39.0,37.0,93,29.93,2.5,NNE,12.7,-,0.00,,Overcast,30,2013-02-23 23:51:00
7:51 PM,37.9,37.0,97,29.91,2.5,NE,10.4,-,0.00,,Light Drizzle,40,2013-02-24 00:51:00
8:37 PM,37.4,35.6,93,29.88,2.5,NNE,10.4,-,0.00,,Overcast,30,2013-02-24 01:37:00
8:44 PM,37.4,35.6,93,29.89,8.0,NNE,11.5,-,0.00,,Overcast,30,2013-02-24 01:44:00
8:51 PM,37.9,36.0,93,29.89,8.0,NNE,13.8,-,0.00,,Overcast,30,2013-02-24 01:51:00
9:51 PM,37.0,36.0,96,29.85,4.0,NNE,15.0,-,0.00,,Light Drizzle,30,2013-02-24 02:51:00
10:51 PM,37.0,36.0,96,29.83,3.0,NNE,12.7,-,0.00,,Light Drizzle,30,2013-02-24 03:51:00
11:51 PM,37.9,37.0,97,29.81,3.0,North,11.5,-,0.00,,Light Drizzle,10,2013-02-24 04:51:00